Weather Roundup
Issued by NWS Chicago, IL

Home | Current Version | Previous Version | Text Only | Print | Product List | Glossary On
Versions: 1 2 3 4 5 6 7 8 9 10 11 12 13 14 15 16 17 18 19 20 21 22 23 24 25 26 27 28 29 30 31 32 33 34 35 36 37 38 39 40 41 42 43 44 45 46 47 48 49 50
000
NZUS59 KLOT 032121
HRRLOT

CHICAGO AREA WEATHER ROUNDUP
NATIONAL WEATHER SERVICE CHICAGO/ROMEOVILLE IL
400 PM CDT THU SEP 03 2015

NOTE: "FAIR" INDICATES FEW OR NO CLOUDS BELOW 12,000 FEET WITH NO
SIGNIFICANT WEATHER AND/OR OBSTRUCTIONS TO VISIBILITY.

* THESE STATIONS ARE NOT UNDER NWS QUALITY CONTROL. THEY ALSO MAY NOT
  REPORT WEATHER SUCH AS PRECIPITATION OR FOG.

ILZ005-006-012>014-019>023-032200-
NORTHEAST ILLINOIS

CITY           SKY/WX    TMP DP  RH WIND       PRES   REMARKS
OHARE          MOSUNNY   90  68  48 W12       29.88F HX  94
MIDWAY         MOSUNNY   92  67  43 SW9G20    29.88F HX  95
AURORA         MOSUNNY   90  71  53 W12       29.91F HX  96
LANSING*       MOSUNNY   89  65  46 W10       29.90S HX  90
JOLIET*        MOSUNNY   92  69  47 SW10      29.90F HX  97
WAUKEGAN       MOSUNNY   87  71  58 SW6       29.87F HX  93
DUPAGE AIRPORT PTSUNNY   89  71  55 SW12      29.90F HX  95
WHEELING       MOSUNNY   90  69  50 W9G17     29.89F HX  94
KANKAKEE*      MOSUNNY   91  71  52 SW9       29.91F HX  97
MORRIS*        SUNNY     90  68  49 W10       29.89F HX  94
LEWIS AIRPORT* MOSUNNY   89  65  45 W10G17    29.90F HX  91
NORTHERLY IS     N/A     89  63  41 W10         N/A  HX  90
$$

WIZ051-052-058>065-066-070>072-032200-
SOUTHEAST WISCONSIN

CITY           SKY/WX    TMP DP  RH WIND       PRES   REMARKS
MILWAUKEE      MOSUNNY   75  68  78 NE10      29.90F
KENOSHA*       MOSUNNY   89  73  59 W9        29.88F HX  97
RACINE*        MOSUNNY   80  69  69 NE10      29.91S HX  83
BURLINGTON     MOSUNNY   85  70  60 W9        29.89F HX  90
WAUKESHA       MOSUNNY   82  70  65 NW9       29.92S HX  86
WEST BEND      SUNNY     77  64  65 NW9       29.93S
$$

INZ001>003-010>013-019-020-032200-
NORTHWEST INDIANA

CITY           SKY/WX    TMP DP  RH WIND       PRES   REMARKS
GARY*          PTSUNNY   91  63  38 W14       29.90F HX  92
MICHIGAN CITY* NOT AVBL
RENSSELAER*    NOT AVBL
VALPARAISO     SUNNY     89  70  53 W9        29.91F HX  94
$$

LMZ740>746-032200-
SOUTHERN LAKE MICHIGAN

STATION/POSITION TIME  SKY/WX   TEMP WIND        PRES    VSBY
                                AIR  DIR/SP/G
                 (UTC)          (F)  (DEG/KT/KT) (MB)    (MI)
HARRISON CRIB    2100            88  220/ 16/ 20   N/A
BURNHAM HARBOR   2100            89  250/  6/ 12   N/A
CALUMET HARBOR   2100            90  230/  8/ 14   N/A
BURNS HARBOR     NOT AVBL
MICHIGAN CITY    2100            83  220/  6/  7   N/A
$$

ABBREVIATIONS USED IN REMARKS
   TC - TEMPERATURE IN CELSIUS
  WCI - WIND CHILL INDEX
   HX - HEAT INDEX
  VSB - VISIBILITY
$$


USA.gov is the U.S. government's official web portal to all federal, state and local government web resources and services.